FW8535 Weather Reports


time (UTC)temp
C
wind
direction
speed
KPH
gust
KPH
rain 1hr
cm
rain 24hr
cm
rain mn
cm
humidity
%
barometer
mb
20260906085054 18 347 0.0 0.0 0.00 0.00 0.00 91 1009.8
20260906084554 18 347 0.0 4.8 0.00 0.00 0.00 91 1009.9
20260906084053 18 347 1.6 4.8 0.00 0.00 0.00 91 1009.7
20260906083553 18 355 1.6 4.8 0.00 0.00 0.00 90 1009.9
20260906082554 18 355 0.0 4.8 0.00 0.00 0.00 90 1009.8
20260906082057 18 355 1.6 4.8 0.00 0.00 0.00 90 1009.7
20260906081555 19 355 0.0 4.8 0.00 0.00 0.00 90 1009.6
20260906081056 19 355 0.0 4.8 0.00 0.00 0.00 89 1009.8
20260906080552 19 355 1.6 4.8 0.00 0.00 0.00 89 1009.6
20260906080051 19 355 1.6 6.4 0.00 0.00 0.00 89 1009.9
20260906075550 19 355 1.6 6.4 0.00 0.00 0.00 89 1009.8
20260906075050 20 342 1.6 6.4 0.00 0.00 0.00 89 1009.9
20260906074550 20 360 1.6 8.0 0.00 0.00 0.00 89 1009.7
20260906074049 20 360 1.6 8.0 0.00 0.00 0.00 89 1009.8
20260906073549 20 17 3.2 8.0 0.00 0.00 0.00 90 1009.9
20260906072547 20 20 3.2 8.0 0.00 0.00 0.00 89 1010.0
20260906072047 20 360 3.2 8.0 0.00 0.00 0.00 89 1010.0
20260906071557 20 9 4.8 6.4 0.00 0.00 0.00 89 1009.9
20260906071049 20 360 3.2 8.0 0.00 0.00 0.00 88 1010.0
20260906070545 20 5 3.2 8.0 0.00 0.00 0.00 88 1009.9
20260906070044 20 36 1.6 8.0 0.00 0.00 0.00 88 1010.0
20260906065545 20 45 3.2 9.7 0.00 0.00 0.00 87 1010.2
20260906065042 20 44 4.8 12.9 0.00 0.00 0.00 87 1010.1
20260906064543 20 44 4.8 12.9 0.00 0.00 0.00 87 1010.2
20260906064044 20 34 6.4 11.3 0.00 0.00 0.00 87 1010.2
20260906063544 20 38 4.8 9.7 0.00 0.00 0.00 86 1010.3
20260906062544 21 38 4.8 11.3 0.00 0.00 0.00 86 1010.1
20260906062045 21 51 4.8 11.3 0.00 0.00 0.00 86 1010.3
20260906061542 21 46 4.8 11.3 0.00 0.00 0.00 86 1010.2
20260906061041 21 45 3.2 12.9 0.00 0.00 0.00 85 1010.3
20260906060541 21 355 4.8 12.9 0.00 0.00 0.00 85 1010.3
20260906060041 21 17 4.8 9.7 0.00 0.00 0.00 85 1010.3
20260906055541 21 355 4.8 9.7 0.00 0.00 0.00 84 1010.2
20260906055041 21 13 4.8 8.0 0.00 0.00 0.00 84 1010.3
20260906054544 21 10 3.2 9.7 0.00 0.00 0.00 84 1010.2
20260906054040 21 10 4.8 9.7 0.00 0.00 0.00 84 1010.2
20260906053540 21 31 4.8 9.7 0.00 0.00 0.00 83 1010.1
20260906052538 21 14 4.8 9.7 0.00 0.00 0.00 82 1010.1
20260906052036 21 21 3.2 12.9 0.00 0.00 0.00 81 1010.0
20260906051545 21 13 4.8 12.9 0.00 0.00 0.00 81 1009.9
20260906051036 22 39 4.8 12.9 0.00 0.00 0.00 81 1010.0
20260906050539 22 39 4.8 16.1 0.00 0.00 0.00 80 1010.1
20260906050058 22 46 4.8 16.1 0.00 0.00 0.00 80 1010.0
20260906045536 22 19 4.8 12.9 0.00 0.00 0.00 80 1009.9
20260906045035 22 5 4.8 12.9 0.00 0.00 0.00 80 1010.0
20260906044536 22 11 3.2 8.0 0.00 0.00 0.00 80 1009.9
20260906044037 22 13 1.6 14.5 0.00 0.00 0.00 79 1009.9
20260906043535 22 28 4.8 14.5 0.00 0.00 0.00 79 1010.1
20260906042535 22 5 3.2 6.4 0.00 0.00 0.00 78 1009.9
20260906042035 22 360 3.2 6.4 0.00 0.00 0.00 78 1010.0
20260906041536 22 355 3.2 6.4 0.00 0.00 0.00 77 1009.9
20260906041035 22 355 4.8 8.0 0.00 0.00 0.00 77 1009.8
20260906040535 22 335 3.2 8.0 0.00 0.00 0.00 77 1009.9
20260906040041 22 346 3.2 6.4 0.00 0.00 0.00 76 1010.1
20260906035536 22 5 3.2 6.4 0.00 0.00 0.00 75 1010.0
20260906035035 22 350 0.0 6.4 0.00 0.00 0.00 75 1010.2
20260906034541 22 342 3.2 8.0 0.00 0.00 0.00 75 1010.0
20260906034037 22 322 3.2 8.0 0.00 0.00 0.00 75 1009.9
20260906033534 22 342 3.2 6.4 0.00 0.00 0.00 74 1009.9
20260906032537 23 309 3.2 8.0 0.00 0.00 0.00 73 1010.0
20260906032038 23 5 3.2 12.9 0.00 0.00 0.00 73 1010.2
20260906031542 23 355 3.2 12.9 0.00 0.00 0.00 73 1010.0
20260906031038 23 340 1.6 6.4 0.00 0.00 0.00 73 1010.0
20260906030540 23 348 1.6 4.8 0.00 0.00 0.00 73 1010.1
20260906030037 23 360 1.6 4.8 0.00 0.00 0.00 72 1010.1
20260906025537 23 355 1.6 4.8 0.00 0.00 0.00 72 1010.0
20260906025037 23 355 1.6 6.4 0.00 0.00 0.00 72 1010.0
20260906024538 23 355 3.2 8.0 0.00 0.00 0.00 72 1010.0
20260906024037 23 5 3.2 8.0 0.00 0.00 0.00 72 1010.1
20260906023540 23 355 1.6 6.4 0.00 0.00 0.00 72 1010.1
20260906022537 23 348 1.6 4.8 0.00 0.00 0.00 71 1010.1
20260906022037 23 348 0.0 4.8 0.00 0.00 0.00 70 1010.0
20260906021536 23 348 3.2 4.8 0.00 0.00 0.00 69 1010.0
20260906021036 23 348 3.2 4.8 0.00 0.00 0.00 69 1009.9
20260906020536 24 348 3.2 4.8 0.00 0.00 0.00 68 1009.9
20260906020035 24 348 3.2 4.8 0.00 0.00 0.00 68 1009.7
20260906015534 25 348 0.0 6.4 0.00 0.00 0.00 67 1009.7
20260906015033 25 347 1.6 6.4 0.00 0.00 0.00 67 1009.6
20260906014534 25 331 1.6 6.4 0.00 0.00 0.00 66 1009.3
20260906014032 25 350 1.6 6.4 0.00 0.00 0.00 65 1009.3
20260906013532 26 355 3.2 9.7 0.00 0.00 0.00 65 1009.2
20260906012525 26 5 6.4 14.5 0.00 0.00 0.00 64 1009.0
20260906012025 26 360 4.8 14.5 0.00 0.00 0.00 63 1009.0
20260906011525 27 30 6.4 12.9 0.00 0.00 0.00 62 1008.9
20260906011026 27 49 3.2 12.9 0.00 0.00 0.00 62 1008.8
20260906010525 27 16 4.8 12.9 0.00 0.00 0.00 61 1008.8
20260906010024 27 47 4.8 14.5 0.00 0.00 0.00 61 1008.7
20260906005529 27 24 8.0 14.5 0.00 0.00 0.00 60 1008.6
20260906005024 28 57 4.8 16.1 0.00 0.00 0.00 60 1008.4
20260906004524 28 32 8.0 20.9 0.00 0.00 0.00 60 1008.5
20260906004025 28 55 6.4 20.9 0.00 0.00 0.00 59 1008.4
20260906003526 28 50 8.0 16.1 0.00 0.00 0.00 59 1008.2
20260906002529 28 28 6.4 17.7 0.00 0.00 0.00 58 1008.2
20260906002030 28 53 8.0 17.7 0.00 0.00 0.00 58 1008.1
20260906001527 29 54 6.4 17.7 0.00 0.00 0.00 58 1008.1
20260906001027 29 51 8.0 22.5 0.00 0.00 0.00 58 1008.0
20260906000526 29 55 11.3 22.5 0.00 0.00 0.00 57 1008.0
20260906000030 30 49 9.7 20.9 0.00 0.00 0.00 57 1008.1
20260905235526 30 41 9.7 20.9 0.00 0.00 0.00 56 1008.0
20260905235026 30 44 6.4 19.3 0.00 0.00 0.00 56 1007.9
20260905234525 30 36 6.4 19.3 0.00 0.00 0.00 56 1008.0
20260905234026 30 50 8.0 17.7 0.00 0.00 0.00 56 1007.7
20260905233526 30 53 6.4 17.7 0.00 0.00 0.00 56 1007.8
20260905232522 30 50 9.7 17.7 0.00 0.00 0.00 55 1007.6
20260905232021 30 51 6.4 17.7 0.00 0.00 0.00 54 1007.7
20260905231521 31 48 9.7 19.3 0.00 0.00 0.00 54 1007.7
20260905231020 31 49 6.4 19.3 0.00 0.00 0.00 54 1007.6
20260905230519 31 44 6.4 16.1 0.00 0.00 0.00 54 1007.6
20260905230019 31 62 4.8 14.5 0.00 0.00 0.00 54 1007.7
20260905225520 31 53 4.8 17.7 0.00 0.00 0.00 54 1007.6
20260905225018 31 53 4.8 17.7 0.00 0.00 0.00 54 1007.5
20260905224519 31 46 4.8 17.7 0.00 0.00 0.00 53 1007.5
20260905224019 31 47 4.8 17.7 0.00 0.00 0.00 53 1007.4
20260905223519 31 48 6.4 16.1 0.00 0.00 0.00 53 1007.3
20260905222521 31 57 4.8 16.1 0.00 0.00 0.00 53 1007.4
20260905222020 31 42 8.0 16.1 0.00 0.00 0.00 52 1007.5
20260905221522 31 32 8.0 16.1 0.00 0.00 0.00 52 1007.5
20260905221021 32 34 8.0 17.7 0.00 0.00 0.00 51 1007.6
20260905220522 31 32 8.0 17.7 0.00 0.00 0.00 49 1007.5
20260905220019 32 5 8.0 16.1 0.00 0.00 0.00 49 1007.6
20260905215519 32 24 6.4 14.5 0.00 0.00 0.00 49 1007.7
20260905215018 31 31 6.4 14.5 0.00 0.00 0.00 49 1007.6
20260905214519 32 23 4.8 14.5 0.00 0.00 0.00 48 1007.5
20260905214018 32 19 9.7 14.5 0.00 0.00 0.00 48 1007.6
20260905213518 32 5 6.4 12.9 0.00 0.00 0.00 48 1007.7
20260905212519 31 24 4.8 9.7 0.00 0.00 0.00 49 1007.4
20260905212023 31 21 4.8 14.5 0.00 0.00 0.00 49 1007.6
20260905211516 31 26 4.8 17.7 0.00 0.00 0.00 50 1007.6
20260905211017 31 24 8.0 17.7 0.00 0.00 0.00 50 1007.7
20260905210519 31 19 1.6 14.5 0.00 0.00 0.00 51 1007.6
20260905210014 31 19 9.7 14.5 0.00 0.00 0.00 51 1007.7
20260905205514 31 10 1.6 16.1 0.00 0.00 0.00 51 1007.7
20260905205015 31 10 8.0 16.1 0.00 0.00 0.00 51 1007.8
20260905204514 31 10 4.8 14.5 0.00 0.00 0.00 51 1007.8
20260905204012 31 41 4.8 14.5 0.00 0.00 0.00 52 1007.8
20260905203511 31 43 3.2 9.7 0.00 0.00 0.00 52 1007.8
20260905202509 30 16 1.6 12.9 0.00 0.00 0.00 53 1007.8
20260905202011 30 11 4.8 16.1 0.00 0.00 0.00 53 1008.0
20260905201509 30 5 8.0 19.3 0.00 0.00 0.00 53 1008.1
20260905201008 31 13 6.4 19.3 0.00 0.00 0.00 53 1008.0
20260905200509 30 300 3.2 14.5 0.00 0.00 0.00 54 1008.0
20260905200008 30 299 3.2 14.5 0.00 0.00 0.00 54 1008.0
20260905195506 30 24 1.6 12.9 0.00 0.00 0.00 55 1007.9
20260905195006 30 32 6.4 12.9 0.00 0.00 0.00 55 1008.0
20260905194508 30 34 4.8 9.7 0.00 0.00 0.00 55 1008.0
20260905194005 30 43 3.2 12.9 0.00 0.00 0.00 56 1008.1
20260905193503 30 40 4.8 16.1 0.00 0.00 0.00 56 1008.0
20260905192600 30 28 9.7 16.1 0.00 0.00 0.00 56 1008.1
20260905192102 29 23 3.2 12.9 0.00 0.00 0.00 56 1008.3
20260905191613 29 27 3.2 12.9 0.00 0.00 0.00 56 1008.3
20260905191501 29 27 4.8 12.9 0.00 0.00 0.00 56 1008.3
20260905191101 29 28 1.6 14.5 0.00 0.00 0.00 57 1008.2
20260905190601 29 28 1.6 14.5 0.00 0.00 0.00 56 1008.2
20260905190056 29 34 4.8 14.5 0.00 0.00 0.00 57 1008.2
20260905185558 28 34 4.8 14.5 0.00 0.00 0.00 58 1008.2
20260905185056 28 28 6.4 12.9 0.00 0.00 0.00 57 1008.2
20260905184608 28 51 3.2 9.7 0.00 0.00 0.00 58 1008.2
20260905184054 28 55 6.4 9.7 0.00 0.00 0.00 59 1008.3
20260905183553 28 49 4.8 11.3 0.00 0.00 0.00 59 1008.3
20260905182555 27 51 0.0 9.7 0.00 0.00 0.00 61 1008.2
20260905182055 27 51 4.8 9.7 0.00 0.00 0.00 61 1008.4
20260905181550 27 52 1.6 11.3 0.00 0.00 0.00 62 1008.1
20260905181049 27 52 1.6 16.1 0.00 0.00 0.00 62 1008.3
20260905180547 27 39 4.8 17.7 0.00 0.00 0.00 63 1008.2
20260905180051 27 39 8.0 17.7 0.00 0.00 0.00 63 1008.4
20260905175547 27 76 6.4 14.5 0.00 0.00 0.00 63 1008.4
20260905175046 27 99 4.8 12.9 0.00 0.00 0.00 63 1008.4
20260905174550 27 94 6.4 12.9 0.00 0.00 0.00 63 1008.5
20260905174045 26 12 3.2 8.0 0.00 0.00 0.00 64 1008.5
20260905173544 26 9 1.6 14.5 0.00 0.00 0.00 65 1008.5
20260905172547 26 333 3.2 12.9 0.00 0.00 0.00 65 1008.6
20260905172043 26 296 4.8 12.9 0.00 0.00 0.00 65 1008.7
20260905171543 26 306 4.8 12.9 0.00 0.00 0.00 66 1008.9
20260905171042 26 259 3.2 12.9 0.00 0.00 0.00 66 1008.9
20260905170540 26 248 4.8 12.9 0.00 0.00 0.00 66 1008.8
20260905170040 26 239 1.6 12.9 0.00 0.00 0.00 67 1008.9
20260905165540 25 238 0.0 12.9 0.00 0.00 0.00 67 1008.9
20260905165038 25 244 4.8 11.3 0.00 0.00 0.00 67 1009.0
20260905164537 25 126 1.6 8.0 0.00 0.00 0.00 67 1008.8
20260905164036 25 126 1.6 11.3 0.00 0.00 0.00 67 1008.7
20260905163535 25 128 3.2 11.3 0.00 0.00 0.00 68 1008.5
20260905162539 25 129 4.8 12.9 0.00 0.00 0.00 70 1008.1
20260905162038 24 130 6.4 12.9 0.00 0.00 0.00 71 1008.0
20260905161536 24 133 8.0 14.5 0.00 0.00 0.00 71 1007.9
20260905161036 24 135 6.4 14.5 0.00 0.00 0.00 71 1008.1
20260905160533 24 112 4.8 11.3 0.00 0.00 0.00 72 1008.1
20260905160046 24 112 4.8 9.7 0.00 0.00 0.00 71 1007.9
20260905155531 23 111 1.6 9.7 0.00 0.00 0.00 73 1008.0
20260905155031 23 122 4.8 9.7 0.00 0.00 0.00 73 1008.0
20260905154529 23 87 3.2 12.9 0.00 0.00 0.00 73 1008.0
20260905154029 23 67 3.2 12.9 0.00 0.00 0.00 75 1007.9
20260905153526 22 116 6.4 12.9 0.00 0.00 0.00 76 1007.8
20260905152523 22 95 4.8 11.3 0.00 0.00 0.00 76 1008.1
20260905152025 22 94 1.6 9.7 0.00 0.00 0.00 76 1007.9
20260905151521 22 91 3.2 11.3 0.00 0.00 0.00 77 1008.1
20260905151024 22 103 4.8 11.3 0.00 0.00 0.00 78 1008.2
20260905150519 22 109 4.8 11.3 0.00 0.00 0.00 78 1008.3
20260905150024 21 111 6.4 11.3 0.00 0.00 0.00 78 1008.2
20260905145519 21 101 3.2 11.3 0.00 0.00 0.00 79 1008.2
20260905145016 21 105 3.2 11.3 0.00 0.00 0.00 80 1008.1
20260905144537 21 108 3.2 9.7 0.00 0.00 0.00 81 1008.1
20260905144019 21 49 4.8 14.5 0.00 0.00 0.00 81 1008.0
20260905143516 21 86 3.2 14.5 0.00 0.00 0.00 81 1008.1
20260905142513 20 46 6.4 14.5 0.00 0.00 0.00 82 1007.8
20260905142015 20 36 6.4 14.5 0.00 0.00 0.00 83 1007.8
20260905141520 20 55 8.0 14.5 0.00 0.00 0.00 83 1007.9
20260905141016 20 32 6.4 14.5 0.00 0.00 0.00 84 1008.0
20260905140513 20 41 8.0 14.5 0.00 0.00 0.00 84 1007.9
20260905140012 19 5 6.4 14.5 0.00 0.00 0.00 84 1007.9
20260905135512 19 46 4.8 14.5 0.00 0.00 0.00 84 1007.8
20260905135012 19 53 6.4 14.5 0.00 0.00 0.00 85 1007.8
20260905134516 18 42 4.8 14.5 0.00 0.00 0.00 85 1008.0
20260905134011 18 36 4.8 12.9 0.00 0.00 0.00 85 1007.9
20260905133512 18 37 4.8 11.3 0.00 0.00 0.00 85 1008.0
20260905132515 17 42 0.0 3.2 0.00 0.00 0.00 86 1007.7
20260905132009 17 49 0.0 3.2 0.00 0.00 0.00 87 1007.7
20260905131510 16 51 0.0 3.2 0.00 0.00 0.00 89 1007.7
20260905131010 16 51 0.0 3.2 0.00 0.00 0.00 90 1007.6
20260905130508 16 51 0.0 1.6 0.00 0.00 0.00 90 1007.5
20260905130008 16 50 0.0 3.2 0.00 0.00 0.00 90 1007.3
20260905125507 16 50 0.0 4.8 0.00 0.00 0.00 90 1007.1
20260905125007 16 50 1.6 4.8 0.00 0.00 0.00 89 1006.8
20260905124506 16 51 1.6 4.8 0.00 0.00 0.00 88 1006.7
20260905124004 16 51 0.0 3.2 0.00 0.00 0.00 89 1006.9
20260905123504 16 51 0.0 3.2 0.00 0.00 0.00 89 1006.6
20260905122506 16 51 1.6 4.8 0.00 0.00 0.00 89 1006.5
20260905122002 16 51 0.0 4.8 0.00 0.00 0.00 89 1006.3
20260905121501 16 51 0.0 4.8 0.00 0.00 0.00 89 1006.2
20260905121002 16 71 0.0 0.0 0.00 0.00 0.00 89 1006.2
20260905120559 16 72 0.0 0.0 0.00 0.00 0.00 89 1006.2
20260905120100 16 72 0.0 0.0 0.00 0.00 0.00 89 1006.1
20260905115601 16 72 0.0 0.0 0.00 0.00 0.00 89 1006.1
20260905115100 16 72 0.0 0.0 0.00 0.00 0.00 89 1005.9
20260905114627 16 72 0.0 1.6 0.00 0.00 0.00 88 1005.7
20260905114057 16 72 0.0 1.6 0.00 0.00 0.00 89 1005.8
20260905113556 16 72 0.0 3.2 0.00 0.00 0.00 88 1005.7
20260905113156 17 73 0.0 3.2 0.00 0.00 0.00 88 1005.7
20260905112556 17 73 0.0 3.2 0.00 0.00 0.00 88 1005.8
20260905112054 17 73 0.0 3.2 0.00 0.00 0.00 87 1005.7
20260905111555 17 73 0.0 3.2 0.00 0.00 0.00 86 1005.6
20260905111055 17 73 0.0 3.2 0.00 0.00 0.00 86 1005.5
20260905110552 17 73 0.0 3.2 0.00 0.00 0.00 86 1005.5
20260905110052 17 73 0.0 1.6 0.00 0.00 0.00 86 1005.3
20260905105552 17 73 0.0 4.8 0.00 0.00 0.00 86 1005.5
20260905105051 17 73 0.0 4.8 0.00 0.00 0.00 86 1005.4
20260905104552 17 76 0.0 1.6 0.00 0.00 0.00 85 1005.4
20260905104049 17 76 0.0 1.6 0.00 0.00 0.00 85 1005.3
20260905103549 17 76 0.0 4.8 0.00 0.00 0.00 85 1005.4
20260905103149 18 76 0.0 0.0 0.00 0.00 0.00 85 1005.4
20260905102546 18 76 0.0 0.0 0.00 0.00 0.00 85 1005.1
20260905102048 18 76 0.0 4.8 0.00 0.00 0.00 85 1004.9
20260905101546 18 76 1.6 4.8 0.00 0.00 0.00 84 1004.9
20260905101044 18 76 1.6 4.8 0.00 0.00 0.00 84 1004.9
20260905100545 18 76 0.0 0.0 0.00 0.00 0.00 83 1004.8
20260905095542 18 76 0.0 4.8 0.00 0.00 0.00 81 1004.7
20260905095045 18 76 3.2 4.8 0.00 0.00 0.00 82 1004.4
20260905094542 18 76 0.0 0.0 0.00 0.00 0.00 81 1004.5
20260905094040 18 76 0.0 0.0 0.00 0.00 0.00 82 1004.7
20260905093541 18 76 0.0 0.0 0.00 0.00 0.00 81 1004.7
20260905093143 18 76 0.0 6.4 0.00 0.00 0.00 79 1004.6
20260905092541 18 76 0.0 6.4 0.00 0.00 0.00 79 1004.4
20260905092040 19 76 3.2 6.4 0.00 0.00 0.00 80 1004.3
20260905091552 19 76 1.6 4.8 0.00 0.00 0.00 80 1004.4
20260905091039 18 76 3.2 6.4 0.00 0.00 0.00 79 1004.5
20260905090540 18 76 3.2 6.4 0.00 0.00 0.00 79 1004.3
20260905090039 18 77 1.6 6.4 0.00 0.00 0.00 79 1004.1
20260905085539 18 88 0.0 0.0 0.00 0.00 0.00 78 1004.4